Theta_e
313 313 313 313 313 313 312 312 312 311 311 311 311 311 311 311 311 311 312 312 312 312 313 312 312 311 310 310 309 310 310 309 308 308 307 305 305 305 305 304 302 296 292
311 312 312 312 313 313 313 312 312 311 311 311 311 311 311 310 310 310 310 310 311 311 311 311 311 310 309 309 309 310 308 308 307 307 306 304 304 303 302 302 300 295 293
307 307 307 308 308 310 311 312 312 312 312 312 311 311 310 310 309 309 309 309 309 309 310 309 309 309 309 308 308 307 305 305 305 305 304 303 302 300 299 298 295 294 291
306 306 307 307 308 309 310 310 310 311 311 311 311 311 311 310 310 309 308 308 308 308 308 308 308 308 308 306 306 305 305 306 305 304 303 301 300 299 297 296 292 291 290
305 305 306 307 308 308 308 308 309 309 309 309 309 309 309 309 309 309 309 308 307 307 307 307 307 306 306 305 305 304 305 304 303 303 301 300 298 297 296 294 291 291 289
303 303 304 304 305 305 306 307 307 307 308 308 308 308 308 308 307 307 307 307 307 306 306 305 305 305 303 303 303 303 303 302 301 301 300 298 298 297 295 293 292 290 288
301 302 303 303 303 304 304 305 305 306 307 307 307 307 307 306 306 305 305 305 306 305 305 303 303 303 303 302 302 302 302 302 301 299 298 297 295 296 295 293 293 292 291
300 301 301 301 301 301 302 302 303 305 305 306 306 306 306 306 304 303 302 302 303 303 302 301 301 301 300 300 301 301 301 300 299 297 295 294 294 295 294 295 294 291 288
297 298 298 298 299 299 299 300 301 304 305 305 304 304 304 303 302 302 301 301 300 299 299 299 298 299 299 299 299 300 299 297 297 295 293 292 293 292 293 293 290 289 287
294 295 296 296 296 298 299 299 300 302 303 303 303 301 301 301 299 299 299 297 296 296 296 296 297 297 297 298 297 295 294 295 294 293 291 291 291 292 293 293 293 291 289
293 293 295 296 296 296 298 299 300 301 301 302 301 300 299 298 298 297 296 295 295 294 294 294 295 295 294 294 293 291 292 290 290 290 290 289 289 290 291 290 290 290 290
292 292 293 294 296 296 297 298 298 298 298 298 298 298 297 296 296 295 293 293 293 294 294 293 291 292 291 290 290 288 288 288 288 289 289 289 290 290 290 289 289 289 288
291 291 292 293 294 296 296 296 296 296 296 296 296 296 296 294 294 293 293 293 294 293 290 289 289 289 289 288 288 288 287 287 287 288 288 289 290 290 289 289 288 287 286
291 291 292 292 293 294 294 294 295 295 295 295 294 293 292 292 292 292 292 291 290 289 288 288 288 287 287 287 287 287 286 287 287 288 289 289 289 289 288 288 287 287 285
290 290 291 291 292 293 293 292 293 293 292 293 291 290 290 290 290 289 289 288 287 287 287 286 286 286 286 287 287 287 287 287 288 288 288 289 288 288 287 287 286 285 284
289 289 289 290 291 291 291 291 291 290 290 288 288 287 288 289 289 287 287 287 287 286 286 286 286 286 286 287 287 287 287 287 288 289 288 288 287 286 286 286 286 285 284
287 288 288 288 288 289 289 289 289 288 287 287 287 288 288 289 288 287 286 286 287 287 287 286 286 286 286 287 287 287 287 287 287 287 287 287 286 286 285 285 285 284 284
286 286 286 286 287 287 288 287 287 286 286 286 287 287 288 288 287 287 287 287 287 287 287 286 286 286 286 286 286 287 287 287 287 286 286 286 285 285 285 285 284 284 283
284 284 284 285 285 286 286 286 286 286 286 286 287 287 287 287 287 287 287 287 286 286 286 286 286 286 286 286 286 286 286 286 286 286 285 285 285 284 284 283 283 282 281
282 282 282 283 284 285 285 285 286 285 286 286 286 287 287 287 287 287 287 286 286 286 286 286 286 286 286 285 285 285 285 285 285 285 284 284 283 283 282 281 281 280 280
280 281 281 282 283 283 284 285 285 285 285 285 286 286 286 286 287 286 286 286 285 285 285 285 284 284 284 284 283 283 283 282 282 282 282 281 281 281 280 279 279 278 277
279 280 281 282 282 283 283 284 284 284 284 284 284 285 285 285 285 285 284 284 284 283 282 282 282 282 282 282 281 281 281 281 280 280 279 279 278 278 277 277 276 276 275
279 279 280 281 281 282 282 282 283 283 282 282 282 283 283 283 283 283 282 282 282 281 281 280 280 279 279 278 278 278 277 277 277 276 276 276 275 275 275 275 274 274 273
277 278 279 280 281 281 281 281 281 281 281 281 281 281 281 281 281 280 279 278 278 277 277 277 277 277 276 276 275 275 274 274 274 274 273 273 273 273 272 272 271 271 270
276 277 278 278 279 280 279 279 279 279 279 279 279 278 277 277 277 276 276 276 276 275 275 274 274 273 273 273 273 272 272 271 271 271 271 271 271 271 271 271 270 270 270
276 276 276 276 277 277 277 277 277 277 276 275 275 275 275 275 274 274 274 274 273 273 273 273 273 273 272 272 272 272 271 271 271 271 270 270 270 269 269 269 269 269 268
Wind_Speed
15 16 17 17 18 19 19 20 21 22 22 23 24 25 27 28 29 32 36 39 42 44 46 48 50 49 50 49 47 50 53 51 57 57 53 51 48 45 45 41 40 45 50
19 19 20 20 21 22 24 25 26 27 27 28 29 31 32 33 33 34 36 38 41 43 44 45 48 46 45 44 47 52 50 50 52 55 53 52 51 48 43 39 39 42 46
26 27 27 27 26 24 24 25 28 31 33 34 35 36 36 36 36 37 39 40 41 42 42 44 44 42 44 44 46 48 49 46 48 50 51 52 50 45 41 38 35 37 40
27 28 29 29 29 29 28 27 27 28 31 32 35 37 38 39 39 39 40 40 41 42 42 42 42 41 43 42 42 43 43 45 46 46 48 48 47 45 41 38 36 39 43
28 29 31 32 32 31 31 29 28 28 29 29 31 32 35 37 39 39 39 40 41 41 41 41 40 40 41 39 39 40 42 44 46 46 46 46 46 44 43 40 39 39 39
30 31 33 35 35 36 36 36 35 33 32 32 31 32 33 34 34 36 37 39 40 41 42 40 38 37 37 36 38 38 42 41 44 45 44 47 45 44 42 42 40 36 35
31 32 33 35 37 37 39 39 38 37 37 36 34 34 35 34 32 33 35 37 39 39 39 38 38 38 36 36 37 37 41 40 39 40 41 41 39 40 41 39 39 41 41
31 34 36 38 39 40 41 41 41 41 39 38 38 38 38 37 38 37 32 33 36 39 38 37 36 36 35 31 33 36 37 38 35 34 38 36 30 32 32 34 36 34 35
31 33 34 37 39 40 41 41 41 42 41 39 38 38 38 37 35 36 36 34 34 35 34 33 34 35 34 30 33 34 34 33 30 28 29 30 21 26 27 32 33 32 33
33 35 36 37 38 40 40 40 39 38 40 40 42 40 39 39 35 33 31 31 33 34 32 31 30 31 31 29 28 28 27 25 23 22 23 22 20 21 23 24 25 28 31
36 37 38 38 39 40 41 40 39 38 39 39 39 38 37 35 34 30 27 28 29 30 30 28 26 26 27 24 19 20 19 17 18 18 20 20 17 17 14 14 16 20 21
38 38 38 38 39 39 39 40 40 41 41 40 39 39 34 32 32 30 24 21 23 26 24 24 21 21 19 15 11 16 15 16 16 17 22 19 17 16 15 14 13 14 15
39 40 39 39 38 38 38 39 41 40 39 40 39 39 37 31 27 25 23 22 21 20 16 15 16 15 12 11 9 10 11 13 14 19 19 16 13 13 12 11 13 15 16
43 42 41 41 41 39 37 36 38 38 37 36 35 34 31 26 23 20 18 16 11 8 9 13 12 9 6 5 5 7 8 9 10 15 16 13 13 11 10 10 12 14 17
45 44 43 41 40 41 41 37 36 34 32 32 28 25 22 17 15 12 9 5 3 6 10 8 4 1 4 3 5 6 7 6 5 9 12 13 11 8 6 7 12 17 20
44 43 42 41 40 39 39 38 30 29 25 18 17 15 13 13 9 3 4 4 4 6 7 6 7 7 5 3 5 3 3 3 6 10 10 9 7 2 4 7 10 14 18
40 41 41 41 39 36 33 28 29 21 16 13 12 11 9 9 3 3 6 5 8 11 14 14 9 9 5 5 4 2 6 5 1 1 4 6 8 8 9 9 10 13 17
38 38 38 37 34 30 24 21 20 18 13 11 10 6 4 1 4 5 5 7 9 12 13 13 11 8 5 3 2 2 5 5 5 5 6 8 10 11 12 11 11 13 15
34 34 32 30 26 21 18 17 16 13 12 11 8 4 2 2 3 4 4 5 4 5 5 6 6 4 3 2 1 1 4 6 7 9 10 12 13 13 13 13 13 13 14
28 26 25 23 18 14 13 14 12 12 10 8 5 5 3 2 3 3 2 2 1 1 2 2 2 2 3 3 4 6 7 8 10 12 12 12 13 12 12 13 13 15 16
23 20 17 15 13 12 11 11 9 8 5 4 5 6 5 3 4 4 3 3 2 2 2 2 3 3 4 5 6 6 7 8 9 10 11 11 12 12 13 13 14 14 15
18 15 13 10 9 7 7 8 8 8 6 4 4 4 4 3 3 3 2 1 1 2 3 4 5 7 7 8 9 10 10 11 11 12 12 13 13 13 13 13 14 14 15
13 11 9 7 5 5 6 7 8 6 5 3 3 2 2 1 1 1 2 2 4 5 7 8 9 10 11 12 13 13 14 14 15 15 15 15 15 15 15 15 15 16 16
9 7 5 3 2 3 4 5 4 3 2 1 1 1 1 2 2 3 4 5 7 8 10 11 13 14 15 15 16 16 16 16 16 16 16 16 15 15 15 15 15 15 15
6 3 2 0 1 2 3 3 3 2 2 1 2 3 3 5 6 8 9 11 12 14 15 15 16 16 16 16 16 16 16 16 16 16 16 16 16 16 16 16 15 15 16
5 2 2 2 3 3 2 2 2 3 2 3 5 7 8 10 11 12 13 13 13 12 11 10 10 11 12 13 13 14 15 16 17 18 17 17 16 17 17 16 16 16 17
Wind_Direction
358 353 344 337 332 329 324 315 307 303 301 299 297 292 287 282 277 273 271 271 269 269 268 270 271 271 271 274 276 275 272 270 270 275 277 275 272 269 270 260 253 239 224
9 2 353 342 334 327 322 318 312 307 301 298 296 295 294 293 291 287 283 278 274 273 274 273 272 274 275 274 275 275 272 275 273 274 276 273 274 275 267 258 248 235 228
352 347 343 339 335 330 321 312 307 305 304 302 299 297 294 292 290 290 288 284 279 276 273 272 271 272 271 270 271 272 274 277 275 273 271 272 271 269 262 253 240 231 222
344 341 338 338 338 335 330 324 317 309 304 301 300 298 297 295 293 291 288 286 283 280 278 275 275 272 272 273 273 273 274 273 273 272 269 269 268 265 257 240 229 222 216
337 335 333 331 330 329 328 326 322 317 311 307 305 302 300 297 295 293 290 288 284 282 280 279 277 275 275 275 274 273 272 274 272 268 264 264 261 253 244 234 228 225 218
329 328 326 325 325 325 323 321 321 321 318 313 309 306 303 300 299 295 290 286 284 281 279 278 277 277 275 274 273 273 272 271 271 269 270 265 267 258 240 227 219 211 206
326 325 324 322 321 319 318 318 318 316 314 312 311 311 309 307 302 298 294 287 283 280 279 279 277 276 275 275 273 270 269 269 266 267 266 264 260 262 250 224 222 216 209
321 319 320 319 318 317 316 315 315 314 314 313 311 308 304 304 305 303 296 288 284 281 280 279 278 281 281 279 275 269 268 269 267 263 261 259 267 266 252 239 221 206 209
317 317 317 317 316 316 316 316 314 312 312 312 311 310 310 309 306 303 299 292 287 285 284 282 282 282 282 281 276 272 270 269 268 260 257 258 259 258 234 213 207 206 204
312 310 310 311 311 311 311 311 312 311 310 312 313 314 312 310 308 303 297 293 292 290 288 286 285 283 281 277 275 273 270 271 269 259 243 241 236 225 211 214 219 214 213
308 306 306 308 309 310 308 308 309 308 308 308 307 309 311 312 309 306 302 297 294 290 292 295 288 282 280 278 274 267 267 273 265 247 229 215 209 203 217 217 213 213 219
310 309 308 305 305 308 308 307 308 308 307 307 307 307 310 312 310 307 302 296 291 289 294 292 291 286 277 270 258 253 259 265 252 233 210 203 196 207 206 197 203 216 227
311 310 308 305 303 303 303 304 306 308 308 308 310 310 310 311 309 304 305 300 292 287 289 291 297 288 274 248 243 246 243 241 235 210 194 184 190 193 181 188 206 215 224
307 310 308 304 302 300 301 303 303 304 305 306 308 308 308 313 310 303 302 299 303 296 296 310 305 291 274 234 209 225 224 230 223 198 183 181 164 169 188 206 221 228 227
303 304 305 303 301 301 302 307 302 301 302 304 306 307 311 321 317 316 319 330 346 325 324 324 321 44 105 119 170 195 206 190 178 196 191 171 175 186 209 236 240 239 235
299 300 302 303 303 302 303 304 301 299 302 299 298 305 316 321 327 336 46 71 27 8 33 44 69 75 90 112 152 154 154 146 149 147 164 187 191 237 284 266 255 245 242
300 300 300 300 301 300 301 300 298 296 291 291 298 304 313 328 11 89 89 78 78 63 68 68 82 71 65 67 95 93 130 132 124 181 231 237 246 277 287 284 266 250 245
300 299 299 299 299 299 296 290 286 284 275 281 285 303 323 21 106 120 101 106 92 74 69 70 70 71 65 78 125 230 264 272 277 275 261 253 264 279 283 278 268 260 255
304 302 301 299 296 293 288 283 277 269 273 279 268 251 246 148 130 124 114 87 78 72 60 65 68 60 53 49 58 269 279 282 282 281 279 279 282 284 283 274 263 255 253
308 306 305 301 296 291 287 272 261 255 261 256 228 202 162 131 158 146 114 98 115 74 40 17 4 339 327 315 300 294 293 291 289 289 288 287 285 282 276 269 266 266 265
315 314 312 303 298 297 275 252 240 233 200 173 146 130 132 159 135 130 121 108 91 69 43 15 336 324 324 321 318 318 317 317 315 311 306 300 294 287 280 275 271 268 265
317 319 316 304 291 266 236 218 204 194 190 179 149 145 147 155 141 135 129 108 38 14 10 359 345 337 330 325 320 319 316 313 309 302 298 294 293 292 288 285 280 275 272
320 321 316 300 268 235 215 202 196 193 191 184 165 159 155 161 111 29 359 348 340 338 336 332 325 323 322 319 315 312 310 306 303 301 299 298 295 292 290 287 284 281 277
325 319 309 281 230 207 204 200 191 185 178 162 103 72 43 18 354 337 333 329 324 319 315 311 310 310 308 307 306 305 303 301 299 298 296 294 294 293 290 288 285 281 278
335 339 343 296 141 153 155 146 133 123 112 70 26 1 334 324 319 316 314 311 310 309 308 307 307 307 307 307 309 308 308 305 302 300 299 299 299 295 290 286 282 278 275
337 3 60 87 103 113 114 103 71 34 346 317 311 308 306 304 304 303 304 304 305 308 312 316 318 319 318 317 318 319 319 317 313 310 306 304 299 294 290 287 284 281 277